Torna al catalogo

SL-16 DEB

LostLEO
NORAD 39906·DEBRIS·🇷🇺 Russia

Lanciato Mar 26, 1993 da Baikonur Cosmodrome

Loading…

Prossimi Passaggi (prossime 24 ore)

TLE

ObsoletoSource: Space-Track

Epoca: Sep 23, 2022, 09:15 UTC

1 39906U 93016CG  22266.38546950  .00004380  00000-0  17615-2 0  9991
2 39906  70.9716 272.5366 0116832  67.1174 294.2237 14.24958509932939

Traccia SL-16 DEB in tempo reale con AllMySat

Download on the App Store